When you browse on this site, cookies collect data to enhance your experience and personalize the content and advertising you see.
Visit our Privacy Policy to learn more. By continuing to use the site, you agree to this use of cookies and data.
  • In Austria
  • List of Countries
  • For 7 days
  • Water Temperature
  • Weather Map
  • News
  • Weather Widgets
  • user-avatar
    Login

    Hourly Weather Hlukhiv Pershyi

    Today, 9 April, Thursday

    Time Temperature Precipitation Wind Pressure Humidity
    00:00 +9°C° 0 mm 1 mps 751 mmHg 75%
    01:00 +8°C° 0 mm 1 mps 751 mmHg 78%
    02:00 +8°C° 0 mm 1 mps 751 mmHg 80%
    03:00 +7°C° 0 mm 1 mps 751 mmHg 83%
    04:00 +7°C° 0 mm 1 mps 750 mmHg 85%
    05:00 +7°C° 0 mm 1 mps 750 mmHg 87%
    06:00 +7°C° 0 mm 2 mps 750 mmHg 82%
    07:00 +9°C° 0 mm 2 mps 750 mmHg 76%
    08:00 +10°C° 0 mm 2 mps 750 mmHg 68%
    09:00 +13°C° 0 mm 2 mps 749 mmHg 60%
    10:00 +14°C° 0 mm 3 mps 749 mmHg 51%
    11:00 +16°C° 0 mm 3 mps 749 mmHg 43%
    12:00 +17°C° 0 mm 3 mps 748 mmHg 40%
    13:00 +18°C° 0 mm 3 mps 747 mmHg 37%
    14:00 +19°C° 0 mm 4 mps 747 mmHg 33%
    15:00 +19°C° 0 mm 3 mps 746 mmHg 35%
    16:00 +19°C° 0 mm 3 mps 746 mmHg 37%
    17:00 +18°C° 0 mm 3 mps 745 mmHg 39%
    18:00 +17°C° 0 mm 3 mps 745 mmHg 44%
    19:00 +14°C° 0 mm 3 mps 744 mmHg 48%
    20:00 +12°C° 0 mm 3 mps 744 mmHg 52%
    21:00 +12°C° 0 mm 3 mps 744 mmHg 54%
    22:00 +12°C° 0 mm 3 mps 744 mmHg 56%
    23:00 +12°C° 0 mm 4 mps 744 mmHg 58%

    Tomorrow, 10 April, Friday

    Time Temperature Precipitation Wind Pressure Humidity
    00:00 +11°C° 0 mm 3 mps 744 mmHg 63%
    01:00 +10°C° 0 mm 3 mps 743 mmHg 68%
    02:00 +9°C° 0 mm 3 mps 743 mmHg 74%
    03:00 +9°C° 0.1 mm 3 mps 743 mmHg 77%
    04:00 +8°C° 0.1 mm 4 mps 744 mmHg 80%
    05:00 +8°C° 0.1 mm 5 mps 744 mmHg 83%
    06:00 +8°C° 0 mm 5 mps 744 mmHg 80%
    07:00 +7°C° 0 mm 6 mps 745 mmHg 76%
    08:00 +6°C° 0 mm 7 mps 745 mmHg 73%
    09:00 +8°C° 0 mm 7 mps 746 mmHg 61%
    10:00 +8°C° 0 mm 7 mps 746 mmHg 49%
    11:00 +8°C° 0 mm 7 mps 747 mmHg 37%
    12:00 +9°C° 0 mm 7 mps 747 mmHg 36%
    13:00 +9°C° 0 mm 7 mps 747 mmHg 35%
    14:00 +9°C° 0 mm 7 mps 747 mmHg 34%
    15:00 +9°C° 0 mm 7 mps 747 mmHg 36%
    16:00 +9°C° 0 mm 6 mps 747 mmHg 37%
    17:00 +8°C° 0 mm 6 mps 747 mmHg 39%
    18:00 +7°C° 0 mm 5 mps 747 mmHg 44%
    19:00 +6°C° 0 mm 4 mps 747 mmHg 48%
    20:00 +5°C° 0 mm 3 mps 748 mmHg 53%
    21:00 +4°C° 0 mm 3 mps 748 mmHg 54%
    22:00 +4°C° 0 mm 3 mps 748 mmHg 55%
    23:00 +3°C° 0 mm 3 mps 748 mmHg 56%

    Day after tomorrow, 11 April, Saturday

    Time Temperature Precipitation Wind Pressure Humidity
    00:00 +3°C° 0 mm 3 mps 748 mmHg 58%
    01:00 +2°C° 0 mm 3 mps 748 mmHg 61%
    02:00 +2°C° 0 mm 3 mps 748 mmHg 64%
    03:00 +1°C° 0 mm 3 mps 748 mmHg 66%
    04:00 +1°C° 0 mm 3 mps 748 mmHg 68%
    05:00 +1°C° 0 mm 3 mps 748 mmHg 71%
    06:00 +2°C° 0 mm 3 mps 749 mmHg 66%
    07:00 +4°C° 0 mm 4 mps 749 mmHg 61%
    08:00 +5°C° 0 mm 4 mps 749 mmHg 56%
    09:00 +6°C° 0 mm 5 mps 749 mmHg 52%
    10:00 +8°C° 0 mm 5 mps 749 mmHg 48%
    11:00 +9°C° 0 mm 6 mps 749 mmHg 43%
    12:00 +9°C° 0 mm 6 mps 749 mmHg 39%
    13:00 +10°C° 0 mm 6 mps 750 mmHg 34%
    14:00 +10°C° 0 mm 6 mps 750 mmHg 30%
    15:00 +10°C° 0 mm 5 mps 750 mmHg 31%
    16:00 +9°C° 0 mm 5 mps 750 mmHg 31%
    17:00 +9°C° 0 mm 5 mps 750 mmHg 32%
    18:00 +7°C° 0 mm 4 mps 750 mmHg 36%
    19:00 +6°C° 0 mm 4 mps 750 mmHg 41%
    20:00 +4°C° 0 mm 3 mps 751 mmHg 46%
    21:00 +3°C° 0 mm 3 mps 751 mmHg 48%
    22:00 +4°C° 0 mm 2 mps 752 mmHg 51%
    23:00 +3°C° 0 mm 2 mps 752 mmHg 54%

    12 April, Sunday

    Time Temperature Precipitation Wind Pressure Humidity
    00:00 +3°C° 0 mm 2 mps 752 mmHg 57%
    01:00 +2°C° 0 mm 2 mps 753 mmHg 61%
    02:00 +2°C° 0 mm 2 mps 753 mmHg 64%
    03:00 +2°C° 0 mm 1 mps 753 mmHg 66%
    04:00 +2°C° 0 mm 1 mps 753 mmHg 68%
    05:00 +2°C° 0 mm 1 mps 753 mmHg 70%
    06:00 +3°C° 0 mm 1 mps 753 mmHg 65%
    07:00 +5°C° 0 mm 1 mps 753 mmHg 60%
    08:00 +5°C° 0 mm 2 mps 753 mmHg 55%
    09:00 +6°C° 0 mm 2 mps 753 mmHg 49%
    10:00 +8°C° 0 mm 2 mps 753 mmHg 43%
    11:00 +9°C° 0 mm 2 mps 753 mmHg 37%
    12:00 +10°C° 0 mm 2 mps 752 mmHg 36%
    13:00 +10°C° 0 mm 2 mps 752 mmHg 34%
    14:00 +12°C° 0 mm 2 mps 752 mmHg 33%
    15:00 +12°C° 0 mm 2 mps 751 mmHg 34%
    16:00 +12°C° 0 mm 2 mps 751 mmHg 34%
    17:00 +12°C° 0 mm 2 mps 750 mmHg 35%
    18:00 +10°C° 0 mm 2 mps 750 mmHg 38%
    19:00 +8°C° 0 mm 2 mps 750 mmHg 42%
    20:00 +8°C° 0 mm 1 mps 750 mmHg 45%
    21:00 +6°C° 0 mm 2 mps 749 mmHg 46%
    22:00 +6°C° 0 mm 2 mps 749 mmHg 47%
    23:00 +4°C° 0 mm 3 mps 749 mmHg 48%

    13 April, Monday

    Time Temperature Precipitation Wind Pressure Humidity
    00:00 +4°C° 0 mm 3 mps 748 mmHg 49%
    01:00 +4°C° 0 mm 3 mps 748 mmHg 51%
    02:00 +3°C° 0 mm 3 mps 748 mmHg 52%
    03:00 +3°C° 0 mm 3 mps 747 mmHg 54%
    04:00 +3°C° 0 mm 4 mps 747 mmHg 57%
    05:00 +3°C° 0 mm 4 mps 746 mmHg 59%
    06:00 +5°C° 0 mm 4 mps 746 mmHg 60%
    07:00 +6°C° 0 mm 4 mps 746 mmHg 61%
    08:00 +8°C° 0 mm 5 mps 745 mmHg 62%
    09:00 +10°C° 0 mm 5 mps 745 mmHg 58%
    10:00 +13°C° 0 mm 5 mps 744 mmHg 54%
    11:00 +14°C° 0 mm 6 mps 744 mmHg 51%
    12:00 +15°C° 0 mm 6 mps 743 mmHg 48%
    13:00 +16°C° 0 mm 6 mps 743 mmHg 45%
    14:00 +17°C° 0 mm 6 mps 742 mmHg 41%
    15:00 +17°C° 0 mm 6 mps 741 mmHg 43%
    16:00 +17°C° 0 mm 6 mps 741 mmHg 44%
    17:00 +17°C° 0 mm 6 mps 740 mmHg 45%
    18:00 +16°C° 0 mm 6 mps 740 mmHg 48%
    19:00 +15°C° 0 mm 6 mps 739 mmHg 51%
    20:00 +14°C° 0 mm 6 mps 739 mmHg 54%
    21:00 +13°C° 0 mm 6 mps 738 mmHg 54%
    22:00 +11°C° 0 mm 7 mps 738 mmHg 53%
    23:00 +11°C° 0 mm 7 mps 737 mmHg 53%

    14 April, Tuesday

    Time Temperature Precipitation Wind Pressure Humidity
    00:00 +10°C° 0 mm 7 mps 736 mmHg 54%
    01:00 +10°C° 0 mm 7 mps 736 mmHg 55%
    02:00 +9°C° 0 mm 7 mps 735 mmHg 56%
    03:00 +9°C° 0.1 mm 7 mps 734 mmHg 60%
    04:00 +9°C° 0.1 mm 7 mps 733 mmHg 64%
    05:00 +8°C° 0.1 mm 7 mps 733 mmHg 67%
    06:00 +9°C° 0.1 mm 6 mps 732 mmHg 70%
    07:00 +9°C° 0.1 mm 6 mps 732 mmHg 73%
    08:00 +10°C° 0.1 mm 5 mps 732 mmHg 76%
    09:00 +7°C° 1.6 mm 6 mps 732 mmHg 82%
    10:00 +4°C° 1.6 mm 7 mps 732 mmHg 88%
    11:00 0°C° 1.6 mm 8 mps 733 mmHg 94%
    12:00 0°C° 1.7 mm 8 mps 734 mmHg 94%
    13:00 -1°C° 1.7 mm 8 mps 735 mmHg 94%
    14:00 -1°C° 1.7 mm 8 mps 735 mmHg 94%
    15:00 -1°C° 0.4 mm 8 mps 736 mmHg 89%
    16:00 -1°C° 0.4 mm 7 mps 737 mmHg 84%
    17:00 0°C° 0.4 mm 7 mps 738 mmHg 79%
    18:00 -1°C° 0 mm 7 mps 738 mmHg 76%
    19:00 -2°C° 0 mm 6 mps 739 mmHg 73%
    20:00 -1°C° 0 mm 5 mps 740 mmHg 71%
    21:00 -1°C° 0 mm 5 mps 740 mmHg 72%
    22:00 -2°C° 0 mm 5 mps 740 mmHg 74%
    23:00 -2°C° 0 mm 5 mps 741 mmHg 75%
    Show more